Year,Month,Day,Hour,Minute,Value (Times are PST for insolation in W/m^2)
2016,11,07,00,00,0.00
2016,11,07,00,01,0.00
2016,11,07,00,02,0.00
2016,11,07,00,03,0.00
2016,11,07,00,04,0.00
2016,11,07,00,05,0.00
2016,11,07,00,06,0.00
2016,11,07,00,07,0.00
2016,11,07,00,08,0.00
2016,11,07,00,09,0.00
2016,11,07,00,10,0.00
2016,11,07,00,11,0.00
2016,11,07,00,12,0.00
2016,11,07,00,13,0.00
2016,11,07,00,14,0.00
2016,11,07,00,15,0.00
2016,11,07,00,16,0.00
2016,11,07,00,17,0.00
2016,11,07,00,18,0.00
2016,11,07,00,19,0.00
2016,11,07,00,20,0.00
2016,11,07,00,21,0.00
2016,11,07,00,22,0.00
2016,11,07,00,23,0.00
2016,11,07,00,24,0.00
2016,11,07,00,25,0.00
2016,11,07,00,26,0.00
2016,11,07,00,27,0.00
2016,11,07,00,28,0.00
2016,11,07,00,29,0.00
2016,11,07,00,30,0.00
2016,11,07,00,31,0.00
2016,11,07,00,32,0.00
2016,11,07,00,33,0.00
2016,11,07,00,34,0.00
2016,11,07,00,35,0.00
2016,11,07,00,36,0.00
2016,11,07,00,37,0.00
2016,11,07,00,38,0.00
2016,11,07,00,39,0.00
2016,11,07,00,40,0.00
2016,11,07,00,41,0.00
2016,11,07,00,42,0.00
2016,11,07,00,43,0.00
2016,11,07,00,44,0.00
2016,11,07,00,45,0.00
2016,11,07,00,46,0.00
2016,11,07,00,47,0.00
2016,11,07,00,48,0.00
2016,11,07,00,49,0.00
2016,11,07,00,50,0.00
2016,11,07,00,51,0.00
2016,11,07,00,52,0.00
2016,11,07,00,53,0.00
2016,11,07,00,54,0.00
2016,11,07,00,55,0.00
2016,11,07,00,56,0.00
2016,11,07,00,57,0.00
2016,11,07,00,58,0.00
2016,11,07,00,59,0.00
2016,11,07,01,00,0.00
2016,11,07,01,01,0.00
2016,11,07,01,02,0.00
2016,11,07,01,03,0.00
2016,11,07,01,04,0.00
2016,11,07,01,05,0.00
2016,11,07,01,06,0.00
2016,11,07,01,07,0.00
2016,11,07,01,08,0.00
2016,11,07,01,09,0.00
2016,11,07,01,10,0.00
2016,11,07,01,11,0.00
2016,11,07,01,12,0.00
2016,11,07,01,13,0.00
2016,11,07,01,14,0.00
2016,11,07,01,15,0.00
2016,11,07,01,16,0.00
2016,11,07,01,17,0.00
2016,11,07,01,18,0.00
2016,11,07,01,19,0.00
2016,11,07,01,20,0.00
2016,11,07,01,21,0.00
2016,11,07,01,22,0.00
2016,11,07,01,23,0.00
2016,11,07,01,24,0.00
2016,11,07,01,25,0.00
2016,11,07,01,26,0.00
2016,11,07,01,27,0.00
2016,11,07,01,28,0.00
2016,11,07,01,29,0.00
2016,11,07,01,30,0.00
2016,11,07,01,31,0.00
2016,11,07,01,32,0.00
2016,11,07,01,33,0.00
2016,11,07,01,34,0.00
2016,11,07,01,35,0.00
2016,11,07,01,36,0.00
2016,11,07,01,37,0.00
2016,11,07,01,38,0.00
2016,11,07,01,39,0.00
2016,11,07,01,40,0.00
2016,11,07,01,41,0.00
2016,11,07,01,42,0.00
2016,11,07,01,43,0.00
2016,11,07,01,44,0.00
2016,11,07,01,45,0.00
2016,11,07,01,46,0.00
2016,11,07,01,47,0.00
2016,11,07,01,48,0.00
2016,11,07,01,49,0.00
2016,11,07,01,50,0.00
2016,11,07,01,51,0.00
2016,11,07,01,52,0.00
2016,11,07,01,53,0.00
2016,11,07,01,54,0.00
2016,11,07,01,55,0.00
2016,11,07,01,56,0.00
2016,11,07,01,57,0.00
2016,11,07,01,58,0.00
2016,11,07,01,59,0.00
2016,11,07,02,00,0.00
2016,11,07,02,01,0.00
2016,11,07,02,02,0.00
2016,11,07,02,03,0.00
2016,11,07,02,04,0.00
2016,11,07,02,05,0.00
2016,11,07,02,06,0.00
2016,11,07,02,07,0.00
2016,11,07,02,08,0.00
2016,11,07,02,09,0.00
2016,11,07,02,10,0.00
2016,11,07,02,11,0.00
2016,11,07,02,12,0.00
2016,11,07,02,13,0.00
2016,11,07,02,14,0.00
2016,11,07,02,15,0.00
2016,11,07,02,16,0.00
2016,11,07,02,17,0.00
2016,11,07,02,18,0.00
2016,11,07,02,19,0.00
2016,11,07,02,20,0.00
2016,11,07,02,21,0.00
2016,11,07,02,22,0.00
2016,11,07,02,23,0.00
2016,11,07,02,24,0.00
2016,11,07,02,25,0.00
2016,11,07,02,26,0.00
2016,11,07,02,27,0.00
2016,11,07,02,28,0.00
2016,11,07,02,29,0.00
2016,11,07,02,30,0.00
2016,11,07,02,31,0.00
2016,11,07,02,32,0.00
2016,11,07,02,33,0.00
2016,11,07,02,34,0.00
2016,11,07,02,35,0.00
2016,11,07,02,36,0.00
2016,11,07,02,37,0.00
2016,11,07,02,38,0.00
2016,11,07,02,39,0.00
2016,11,07,02,40,0.00
2016,11,07,02,41,0.00
2016,11,07,02,42,0.00
2016,11,07,02,43,0.00
2016,11,07,02,44,0.00
2016,11,07,02,45,0.00
2016,11,07,02,46,0.00
2016,11,07,02,47,0.00
2016,11,07,02,48,0.00
2016,11,07,02,49,0.00
2016,11,07,02,50,0.00
2016,11,07,02,51,0.00
2016,11,07,02,52,0.00
2016,11,07,02,53,0.00
2016,11,07,02,54,0.00
2016,11,07,02,55,0.00
2016,11,07,02,56,0.00
2016,11,07,02,57,0.00
2016,11,07,02,58,0.00
2016,11,07,02,59,0.00
2016,11,07,03,00,0.00
2016,11,07,03,01,0.00
2016,11,07,03,02,0.00
2016,11,07,03,03,0.00
2016,11,07,03,04,0.00
2016,11,07,03,05,0.00
2016,11,07,03,06,0.00
2016,11,07,03,07,0.00
2016,11,07,03,08,0.00
2016,11,07,03,09,0.00
2016,11,07,03,10,0.00
2016,11,07,03,11,0.00
2016,11,07,03,12,0.00
2016,11,07,03,13,0.00
2016,11,07,03,14,0.00
2016,11,07,03,15,0.00
2016,11,07,03,16,0.00
2016,11,07,03,17,0.00
2016,11,07,03,18,0.00
2016,11,07,03,19,0.00
2016,11,07,03,20,0.00
2016,11,07,03,21,0.00
2016,11,07,03,22,0.00
2016,11,07,03,23,0.00
2016,11,07,03,24,0.00
2016,11,07,03,25,0.00
2016,11,07,03,26,0.00
2016,11,07,03,27,0.00
2016,11,07,03,28,0.00
2016,11,07,03,29,0.00
2016,11,07,03,30,0.00
2016,11,07,03,31,0.00
2016,11,07,03,32,0.00
2016,11,07,03,33,0.00
2016,11,07,03,34,0.00
2016,11,07,03,35,0.00
2016,11,07,03,36,0.00
2016,11,07,03,37,0.00
2016,11,07,03,38,0.00
2016,11,07,03,39,0.00
2016,11,07,03,40,0.00
2016,11,07,03,41,0.00
2016,11,07,03,42,0.00
2016,11,07,03,43,0.00
2016,11,07,03,44,0.00
2016,11,07,03,45,0.00
2016,11,07,03,46,0.00
2016,11,07,03,47,0.00
2016,11,07,03,48,0.00
2016,11,07,03,49,0.00
2016,11,07,03,50,0.00
2016,11,07,03,51,0.00
2016,11,07,03,52,0.00
2016,11,07,03,53,0.00
2016,11,07,03,54,0.00
2016,11,07,03,55,0.00
2016,11,07,03,56,0.00
2016,11,07,03,57,0.00
2016,11,07,03,58,0.00
2016,11,07,03,59,0.00
2016,11,07,04,00,0.00
2016,11,07,04,01,0.00
2016,11,07,04,02,0.00
2016,11,07,04,03,0.00
2016,11,07,04,04,0.00
2016,11,07,04,05,0.00
2016,11,07,04,06,0.00
2016,11,07,04,07,0.00
2016,11,07,04,08,0.00
2016,11,07,04,09,0.00
2016,11,07,04,10,0.00
2016,11,07,04,11,0.00
2016,11,07,04,12,0.00
2016,11,07,04,13,0.00
2016,11,07,04,14,0.00
2016,11,07,04,15,0.00
2016,11,07,04,16,0.00
2016,11,07,04,17,0.00
2016,11,07,04,18,0.00
2016,11,07,04,19,0.00
2016,11,07,04,20,0.00
2016,11,07,04,21,0.00
2016,11,07,04,22,0.00
2016,11,07,04,23,0.00
2016,11,07,04,24,0.00
2016,11,07,04,25,0.00
2016,11,07,04,26,0.00
2016,11,07,04,27,0.00
2016,11,07,04,28,0.00
2016,11,07,04,29,0.00
2016,11,07,04,30,0.00
2016,11,07,04,31,0.00
2016,11,07,04,32,0.00
2016,11,07,04,33,0.00
2016,11,07,04,34,0.00
2016,11,07,04,35,0.00
2016,11,07,04,36,0.00
2016,11,07,04,37,0.00
2016,11,07,04,38,0.00
2016,11,07,04,39,0.00
2016,11,07,04,40,0.00
2016,11,07,04,41,0.00
2016,11,07,04,42,0.00
2016,11,07,04,43,0.00
2016,11,07,04,44,0.00
2016,11,07,04,45,0.00
2016,11,07,04,46,0.00
2016,11,07,04,47,0.00
2016,11,07,04,48,0.00
2016,11,07,04,49,0.00
2016,11,07,04,50,0.00
2016,11,07,04,51,0.00
2016,11,07,04,52,0.00
2016,11,07,04,53,0.00
2016,11,07,04,54,0.00
2016,11,07,04,55,0.00
2016,11,07,04,56,0.00
2016,11,07,04,57,0.00
2016,11,07,04,58,0.00
2016,11,07,04,59,0.00
2016,11,07,05,00,0.00
2016,11,07,05,01,0.00
2016,11,07,05,02,0.00
2016,11,07,05,03,0.00
2016,11,07,05,04,0.00
2016,11,07,05,05,0.00
2016,11,07,05,06,0.00
2016,11,07,05,07,0.00
2016,11,07,05,08,0.00
2016,11,07,05,09,0.00
2016,11,07,05,10,0.00
2016,11,07,05,11,0.00
2016,11,07,05,12,0.00
2016,11,07,05,13,0.00
2016,11,07,05,14,0.00
2016,11,07,05,15,0.00
2016,11,07,05,16,0.00
2016,11,07,05,17,0.00
2016,11,07,05,18,0.00
2016,11,07,05,19,0.00
2016,11,07,05,20,0.00
2016,11,07,05,21,0.00
2016,11,07,05,22,0.00
2016,11,07,05,23,0.00
2016,11,07,05,24,0.00
2016,11,07,05,25,0.00
2016,11,07,05,26,0.00
2016,11,07,05,27,0.00
2016,11,07,05,28,0.00
2016,11,07,05,29,0.00
2016,11,07,05,30,0.00
2016,11,07,05,31,0.00
2016,11,07,05,32,0.00
2016,11,07,05,33,0.00
2016,11,07,05,34,0.00
2016,11,07,05,35,0.00
2016,11,07,05,36,0.00
2016,11,07,05,37,0.00
2016,11,07,05,38,0.00
2016,11,07,05,39,0.00
2016,11,07,05,40,0.00
2016,11,07,05,41,0.00
2016,11,07,05,42,0.00
2016,11,07,05,43,0.00
2016,11,07,05,44,0.00
2016,11,07,05,45,0.00
2016,11,07,05,46,0.00
2016,11,07,05,47,0.00
2016,11,07,05,48,0.00
2016,11,07,05,49,0.00
2016,11,07,05,50,0.00
2016,11,07,05,51,0.00
2016,11,07,05,52,0.00
2016,11,07,05,53,0.00
2016,11,07,05,54,0.00
2016,11,07,05,55,0.00
2016,11,07,05,56,0.00
2016,11,07,05,57,0.00
2016,11,07,05,58,0.00
2016,11,07,05,59,0.00
2016,11,07,06,00,0.00
2016,11,07,06,01,0.00
2016,11,07,06,02,0.00
2016,11,07,06,03,0.00
2016,11,07,06,04,0.00
2016,11,07,06,05,0.00
2016,11,07,06,06,0.00
2016,11,07,06,07,0.00
2016,11,07,06,08,0.00
2016,11,07,06,09,0.00
2016,11,07,06,10,0.00
2016,11,07,08,25,25.00
2016,11,07,08,26,25.00
2016,11,07,08,27,25.40
2016,11,07,08,28,26.00
2016,11,07,08,29,26.00
2016,11,07,08,30,26.00
2016,11,07,08,31,26.00
2016,11,07,08,32,27.80
2016,11,07,08,33,28.00
2016,11,07,08,34,28.50
2016,11,07,08,35,30.70
2016,11,07,08,36,32.40
2016,11,07,08,37,35.20
2016,11,07,08,38,38.30
2016,11,07,08,39,39.00
2016,11,07,08,40,39.00
2016,11,07,08,41,39.20
2016,11,07,08,42,42.60
2016,11,07,08,43,46.80
2016,11,07,08,44,50.80
2016,11,07,08,45,55.80
2016,11,07,08,46,59.20
2016,11,07,08,47,57.20
2016,11,07,08,48,52.10
2016,11,07,08,49,46.80
2016,11,07,08,50,39.90
2016,11,07,08,51,38.60
2016,11,07,08,52,37.60
2016,11,07,08,53,39.40
2016,11,07,08,54,43.30
2016,11,07,08,55,49.20
2016,11,07,08,56,55.90
2016,11,07,08,57,64.00
2016,11,07,08,58,66.90
2016,11,07,08,59,67.20
2016,11,07,09,00,69.80
2016,11,07,09,01,73.60
2016,11,07,09,02,79.70
2016,11,07,09,03,84.70
2016,11,07,09,04,88.70
2016,11,07,09,05,93.80
2016,11,07,09,06,99.20
2016,11,07,09,07,104.50
2016,11,07,09,08,110.40
2016,11,07,09,09,118.10
2016,11,07,09,10,125.60
2016,11,07,09,11,141.50
2016,11,07,09,12,161.40
2016,11,07,09,13,179.60
2016,11,07,09,14,161.80
2016,11,07,09,15,140.80
2016,11,07,09,16,157.30
2016,11,07,09,17,119.00
2016,11,07,09,18,113.60
2016,11,07,09,19,110.00
2016,11,07,09,20,84.90
2016,11,07,09,21,89.70
2016,11,07,09,22,86.20
2016,11,07,09,23,83.20
2016,11,07,09,24,83.00
2016,11,07,09,25,83.40
2016,11,07,09,26,88.20
2016,11,07,09,27,101.10
2016,11,07,09,28,119.10
2016,11,07,09,29,140.00
2016,11,07,09,30,148.00
2016,11,07,09,31,216.80
2016,11,07,09,32,254.70
2016,11,07,09,33,226.20
2016,11,07,09,34,233.60
2016,11,07,09,35,210.40
2016,11,07,09,36,177.60
2016,11,07,09,37,170.40
2016,11,07,09,38,161.30
2016,11,07,09,39,143.50
2016,11,07,09,40,155.40
2016,11,07,09,41,128.80
2016,11,07,09,42,111.70
2016,11,07,09,43,103.60
2016,11,07,09,44,106.00
2016,11,07,09,45,111.80
2016,11,07,09,46,106.80
2016,11,07,09,47,148.80
2016,11,07,09,48,129.20
2016,11,07,09,49,113.40
2016,11,07,09,50,104.20
2016,11,07,09,51,91.60
2016,11,07,09,52,86.00
2016,11,07,09,53,87.60
2016,11,07,09,54,95.00
2016,11,07,09,55,108.70
2016,11,07,09,56,121.70
2016,11,07,09,57,126.60
2016,11,07,09,58,117.80
2016,11,07,09,59,102.90
2016,11,07,10,00,97.20
2016,11,07,10,01,101.00
2016,11,07,10,02,111.90
2016,11,07,10,03,123.50
2016,11,07,10,04,139.40
2016,11,07,10,05,196.40
2016,11,07,10,06,194.20
2016,11,07,10,07,197.30
2016,11,07,10,08,249.40
2016,11,07,10,09,269.50
2016,11,07,10,10,268.20
2016,11,07,10,11,243.50
2016,11,07,10,12,207.90
2016,11,07,10,13,216.50
2016,11,07,10,14,195.80
2016,11,07,10,15,179.90
2016,11,07,10,16,174.00
2016,11,07,10,17,174.40
2016,11,07,10,18,175.30
2016,11,07,10,19,172.00
2016,11,07,10,20,165.50
2016,11,07,10,21,159.60
2016,11,07,10,22,158.00
2016,11,07,10,23,158.00
2016,11,07,10,24,158.00
2016,11,07,10,25,158.00
2016,11,07,10,26,159.20
2016,11,07,10,27,164.40
2016,11,07,10,28,165.30
2016,11,07,10,29,161.30
2016,11,07,10,30,163.20
2016,11,07,10,31,163.40
2016,11,07,10,32,162.10
2016,11,07,10,33,157.70
2016,11,07,10,34,154.20
2016,11,07,10,35,150.10
2016,11,07,10,36,146.50
2016,11,07,10,37,144.00
2016,11,07,10,38,142.80
2016,11,07,10,39,144.80
2016,11,07,10,40,153.60
2016,11,07,10,41,165.80
2016,11,07,10,42,182.20
2016,11,07,10,43,192.00
2016,11,07,10,44,189.80
2016,11,07,10,45,188.20
2016,11,07,10,46,191.40
2016,11,07,10,47,184.60
2016,11,07,10,48,175.80
2016,11,07,10,49,174.00
2016,11,07,10,50,171.80
2016,11,07,10,51,164.60
2016,11,07,10,52,163.00
2016,11,07,10,53,163.00
2016,11,07,10,54,165.00
2016,11,07,10,55,168.20
2016,11,07,10,56,169.00
2016,11,07,10,57,165.80
2016,11,07,10,58,159.10
2016,11,07,10,59,150.30
2016,11,07,11,00,142.00
2016,11,07,11,01,130.50
2016,11,07,11,02,119.40
2016,11,07,11,03,109.10
2016,11,07,11,04,100.60
2016,11,07,11,05,93.10
2016,11,07,11,06,88.60
2016,11,07,11,07,84.20
2016,11,07,11,08,84.00
2016,11,07,11,09,84.00
2016,11,07,11,10,84.00
2016,11,07,11,11,84.90
2016,11,07,11,12,87.10
2016,11,07,11,13,90.10
2016,11,07,11,14,94.00
2016,11,07,11,15,97.60
2016,11,07,11,16,104.50
2016,11,07,11,17,109.80
2016,11,07,11,18,114.80
2016,11,07,11,19,122.40
2016,11,07,11,20,130.50
2016,11,07,11,21,138.10
2016,11,07,11,22,148.00
2016,11,07,11,23,158.20
2016,11,07,11,24,176.10
2016,11,07,11,25,166.60
2016,11,07,11,26,161.00
2016,11,07,11,27,150.60
2016,11,07,11,28,136.30
2016,11,07,11,29,128.40
2016,11,07,11,30,125.70
2016,11,07,11,31,121.20
2016,11,07,11,32,116.60
2016,11,07,11,33,114.30
2016,11,07,11,34,118.80
2016,11,07,11,35,123.50
2016,11,07,11,36,125.00
2016,11,07,11,37,124.00
2016,11,07,11,38,125.30
2016,11,07,11,39,131.60
2016,11,07,11,40,140.10
2016,11,07,11,41,151.80
2016,11,07,11,42,164.80
2016,11,07,11,43,185.00
2016,11,07,11,44,211.50
2016,11,07,11,45,231.20
2016,11,07,11,46,227.50
2016,11,07,11,47,219.60
2016,11,07,11,48,209.40
2016,11,07,11,49,203.00
2016,11,07,11,50,200.10
2016,11,07,11,51,198.10
2016,11,07,11,52,185.50
2016,11,07,11,53,174.90
2016,11,07,11,54,164.90
2016,11,07,11,55,155.90
2016,11,07,11,56,149.80
2016,11,07,11,57,148.00
2016,11,07,11,58,150.70
2016,11,07,11,59,154.90
2016,11,07,12,00,157.40
2016,11,07,12,01,152.20
2016,11,07,12,02,142.40
2016,11,07,12,03,134.60
2016,11,07,12,04,129.80
2016,11,07,12,05,127.30
2016,11,07,12,06,123.60
2016,11,07,12,07,121.20
2016,11,07,12,08,121.00
2016,11,07,12,09,120.20
2016,11,07,12,10,116.40
2016,11,07,12,11,111.30
2016,11,07,12,12,106.80
2016,11,07,12,13,103.10
2016,11,07,12,14,99.20
2016,11,07,12,15,97.20
2016,11,07,12,16,93.10
2016,11,07,12,17,89.20
2016,11,07,12,18,86.00
2016,11,07,12,19,86.70
2016,11,07,12,20,88.90
2016,11,07,12,21,91.80
2016,11,07,12,22,94.40
2016,11,07,12,23,97.20
2016,11,07,12,24,99.80
2016,11,07,12,25,104.30
2016,11,07,12,26,108.30
2016,11,07,12,27,115.10
2016,11,07,12,28,122.20
2016,11,07,12,29,125.00
2016,11,07,12,30,125.00
2016,11,07,12,31,125.00
2016,11,07,12,32,121.60
2016,11,07,12,33,118.20
2016,11,07,12,34,115.70
2016,11,07,12,35,114.00
2016,11,07,12,36,112.90
2016,11,07,12,37,109.20
2016,11,07,12,38,105.90
2016,11,07,12,39,104.30
2016,11,07,12,40,100.80
2016,11,07,12,41,98.30
2016,11,07,12,42,94.80
2016,11,07,12,43,92.70
2016,11,07,12,44,90.70
2016,11,07,12,45,90.00
2016,11,07,12,46,88.90
2016,11,07,12,47,86.80
2016,11,07,12,48,86.00
2016,11,07,12,49,86.00
2016,11,07,12,50,86.00
2016,11,07,12,51,86.00
2016,11,07,12,52,86.40
2016,11,07,12,53,88.00
2016,11,07,12,54,88.00
2016,11,07,12,55,88.00
2016,11,07,12,56,88.00
2016,11,07,12,57,89.40
2016,11,07,12,58,90.80
2016,11,07,12,59,95.00
2016,11,07,13,00,97.00
2016,11,07,13,01,96.50
2016,11,07,13,02,95.00
2016,11,07,13,03,94.10
2016,11,07,13,04,91.80
2016,11,07,13,05,90.30
2016,11,07,13,06,88.50
2016,11,07,13,07,84.40
2016,11,07,13,08,80.40
2016,11,07,13,09,76.80
2016,11,07,13,10,76.00
2016,11,07,13,11,76.00
2016,11,07,13,12,76.00
2016,11,07,13,13,76.60
2016,11,07,13,14,78.50
2016,11,07,13,15,79.00
2016,11,07,13,16,79.00
2016,11,07,13,17,78.70
2016,11,07,13,18,77.00
2016,11,07,13,19,76.70
2016,11,07,13,20,75.10
2016,11,07,13,21,72.80
2016,11,07,13,22,69.90
2016,11,07,13,23,66.00
2016,11,07,13,24,62.50
2016,11,07,13,25,60.00
2016,11,07,13,26,58.00
2016,11,07,13,27,58.00
2016,11,07,13,28,58.00
2016,11,07,13,29,57.00
2016,11,07,13,30,54.80
2016,11,07,13,31,53.30
2016,11,07,13,32,53.00
2016,11,07,13,33,53.90
2016,11,07,13,34,58.00
2016,11,07,13,35,57.60
2016,11,07,13,36,54.20
2016,11,07,13,37,49.30
2016,11,07,13,38,45.50
2016,11,07,13,39,44.00
2016,11,07,13,40,46.20
2016,11,07,13,41,48.70
2016,11,07,13,42,51.00
2016,11,07,13,43,54.60
2016,11,07,13,44,58.60
2016,11,07,13,45,60.70
2016,11,07,13,46,62.50
2016,11,07,13,47,63.00
2016,11,07,13,48,64.30
2016,11,07,13,49,65.00
2016,11,07,13,50,66.80
2016,11,07,13,51,70.20
2016,11,07,13,52,72.00
2016,11,07,13,53,72.00
2016,11,07,13,54,71.20
2016,11,07,13,55,68.50
2016,11,07,13,56,67.00
2016,11,07,13,57,68.50
2016,11,07,13,58,69.00
2016,11,07,13,59,69.00
2016,11,07,14,00,69.00
2016,11,07,14,01,70.20
2016,11,07,14,02,75.10
2016,11,07,14,03,78.80
2016,11,07,14,04,82.20
2016,11,07,14,05,83.00
2016,11,07,14,06,81.50
2016,11,07,14,07,81.00
2016,11,07,14,08,84.20
2016,11,07,14,09,88.60
2016,11,07,14,10,91.50
2016,11,07,14,11,93.70
2016,11,07,14,12,95.90
2016,11,07,14,13,97.60
2016,11,07,14,14,98.00
2016,11,07,14,15,98.00
2016,11,07,14,16,98.00
2016,11,07,14,17,98.00
2016,11,07,14,18,97.80
2016,11,07,14,19,97.00
2016,11,07,14,20,96.20
2016,11,07,14,21,94.00
2016,11,07,14,22,93.00
2016,11,07,14,23,91.50
2016,11,07,14,24,90.10
2016,11,07,14,25,89.90
2016,11,07,14,26,87.70
2016,11,07,14,27,85.40
2016,11,07,14,28,83.60
2016,11,07,14,29,81.20
2016,11,07,14,30,77.90
2016,11,07,14,31,76.30
2016,11,07,14,32,76.00
2016,11,07,14,33,78.70
2016,11,07,14,34,84.60
2016,11,07,14,35,91.50
2016,11,07,14,36,97.90
2016,11,07,14,37,101.60
2016,11,07,14,38,104.50
2016,11,07,14,39,105.00
2016,11,07,14,40,104.20
2016,11,07,14,41,104.00
2016,11,07,14,42,102.00
2016,11,07,14,43,100.00
2016,11,07,14,44,99.50
2016,11,07,14,45,98.00
2016,11,07,14,46,98.00
2016,11,07,14,47,97.40
2016,11,07,14,48,97.00
2016,11,07,14,49,95.50
2016,11,07,14,50,93.20
2016,11,07,14,51,93.00
2016,11,07,14,52,92.60
2016,11,07,14,53,90.70
2016,11,07,14,54,90.00
2016,11,07,14,55,88.00
2016,11,07,14,56,84.80
2016,11,07,14,57,81.90
2016,11,07,14,58,79.40
2016,11,07,14,59,76.10
2016,11,07,15,00,71.70
2016,11,07,15,01,68.00
2016,11,07,15,02,64.40
2016,11,07,15,03,62.50
2016,11,07,15,04,62.00
2016,11,07,15,05,60.70
2016,11,07,15,06,58.50
2016,11,07,15,07,56.30
2016,11,07,15,08,55.90
2016,11,07,15,09,54.00
2016,11,07,15,10,54.00
2016,11,07,15,11,54.00
2016,11,07,15,12,53.50
2016,11,07,15,13,51.80
2016,11,07,15,14,49.60
2016,11,07,15,15,47.50
2016,11,07,15,16,46.20
2016,11,07,15,17,43.80
2016,11,07,15,18,42.00
2016,11,07,15,19,42.00
2016,11,07,15,20,41.10
2016,11,07,15,21,39.50
2016,11,07,15,22,37.70
2016,11,07,15,23,35.60
2016,11,07,15,24,35.00
2016,11,07,15,25,35.10
2016,11,07,15,26,37.00
2016,11,07,15,27,37.50
2016,11,07,15,28,38.30
2016,11,07,15,29,37.00
2016,11,07,15,30,37.00
2016,11,07,15,31,37.00
2016,11,07,15,32,37.00
2016,11,07,15,33,35.30
2016,11,07,15,34,34.80
2016,11,07,15,35,33.00
2016,11,07,15,36,33.00
2016,11,07,15,37,33.00
2016,11,07,15,38,33.00
2016,11,07,15,39,33.00
2016,11,07,15,40,33.00
2016,11,07,15,41,33.00
2016,11,07,15,42,34.90
2016,11,07,15,43,34.80
2016,11,07,15,44,32.40
2016,11,07,15,45,28.80
2016,11,07,15,46,25.60
2016,11,07,15,47,22.80
2016,11,07,15,48,19.70
2016,11,07,15,49,18.30
2016,11,07,15,50,16.40
2016,11,07,15,51,16.00
2016,11,07,15,52,16.00
2016,11,07,15,53,16.00
2016,11,07,15,54,16.00
2016,11,07,15,55,16.00
2016,11,07,15,56,17.20
2016,11,07,15,57,20.00
2016,11,07,15,58,22.60
2016,11,07,15,59,23.00
2016,11,07,16,00,23.00
2016,11,07,16,01,23.00
2016,11,07,16,02,23.00
2016,11,07,16,03,23.80
2016,11,07,16,04,25.00
2016,11,07,16,05,25.00
2016,11,07,16,06,25.00
2016,11,07,16,07,23.40
2016,11,07,16,08,21.00
2016,11,07,16,09,18.90
2016,11,07,16,10,17.40
2016,11,07,16,11,16.00
2016,11,07,16,12,16.00
2016,11,07,16,13,16.00
2016,11,07,16,14,16.00
2016,11,07,16,15,16.00
2016,11,07,16,16,16.00
2016,11,07,16,17,15.80
2016,11,07,16,18,13.60
2016,11,07,16,19,12.00
2016,11,07,16,20,12.00
2016,11,07,16,21,12.00
2016,11,07,16,22,11.40
2016,11,07,16,23,11.00
2016,11,07,16,24,11.00
2016,11,07,16,25,11.00
2016,11,07,16,26,11.00
2016,11,07,16,27,10.60
2016,11,07,16,28,9.00
2016,11,07,16,29,9.00
2016,11,07,16,30,7.90
2016,11,07,16,31,7.00
2016,11,07,16,32,7.00
2016,11,07,16,33,5.30
2016,11,07,16,34,5.00
2016,11,07,16,35,5.00
2016,11,07,16,36,3.70
2016,11,07,16,37,0.00
2016,11,07,16,38,0.00
2016,11,07,16,39,0.00
2016,11,07,16,40,0.00
2016,11,07,16,41,0.00
2016,11,07,16,42,0.00
2016,11,07,16,43,0.00
2016,11,07,16,44,0.00
2016,11,07,16,45,0.00
2016,11,07,16,46,0.00
2016,11,07,16,47,0.00
2016,11,07,16,48,0.00
2016,11,07,16,49,0.00
2016,11,07,16,50,0.00
2016,11,07,16,51,0.00
2016,11,07,16,52,0.00
2016,11,07,16,53,0.00
2016,11,07,16,54,0.00
2016,11,07,16,55,0.00
2016,11,07,16,56,0.00
2016,11,07,16,57,0.00
2016,11,07,16,58,0.00
2016,11,07,16,59,0.00
2016,11,07,17,00,0.00
2016,11,07,17,01,0.00
2016,11,07,17,02,0.00
2016,11,07,17,03,0.00
2016,11,07,17,04,0.00
2016,11,07,17,05,0.00
2016,11,07,17,06,0.00
2016,11,07,17,07,0.00
2016,11,07,17,08,0.00
2016,11,07,17,09,0.00
2016,11,07,17,10,0.00
2016,11,07,17,11,0.00
2016,11,07,17,12,0.00
2016,11,07,17,13,0.00
2016,11,07,17,14,0.00
2016,11,07,17,15,0.00
2016,11,07,17,16,0.00
2016,11,07,17,17,0.00
2016,11,07,17,18,0.00
2016,11,07,17,19,0.00
2016,11,07,17,20,0.00
2016,11,07,17,21,0.00
2016,11,07,17,22,0.00
2016,11,07,17,23,0.00
2016,11,07,17,24,0.00
2016,11,07,17,25,0.00
2016,11,07,17,26,0.00
2016,11,07,17,27,0.00
2016,11,07,17,28,0.00
2016,11,07,17,29,0.00
2016,11,07,17,30,0.00
2016,11,07,17,31,0.00
2016,11,07,17,32,0.00
2016,11,07,17,33,0.00
2016,11,07,17,34,0.00
2016,11,07,17,35,0.00
2016,11,07,17,36,0.00
2016,11,07,17,37,0.00
2016,11,07,17,38,0.00
2016,11,07,17,39,0.00
2016,11,07,17,40,0.00
2016,11,07,17,41,0.00
2016,11,07,17,42,0.00
2016,11,07,17,43,0.00
2016,11,07,17,44,0.00
2016,11,07,17,45,0.00
2016,11,07,17,46,0.00
2016,11,07,17,47,0.00
2016,11,07,17,48,0.00
2016,11,07,17,49,0.00
2016,11,07,17,50,0.00
2016,11,07,17,51,0.00
2016,11,07,17,52,0.00
2016,11,07,17,53,0.00
2016,11,07,17,54,0.00
2016,11,07,17,55,0.00
2016,11,07,17,56,0.00
2016,11,07,17,57,0.00
2016,11,07,17,58,0.00
2016,11,07,17,59,0.00
2016,11,07,18,00,0.00
2016,11,07,18,01,0.00
2016,11,07,18,02,0.00
2016,11,07,18,03,0.00
2016,11,07,18,04,0.00
2016,11,07,18,05,0.00
2016,11,07,18,06,0.00
2016,11,07,18,07,0.00
2016,11,07,18,08,0.00
2016,11,07,18,09,0.00
2016,11,07,18,10,0.00
2016,11,07,18,11,0.00
2016,11,07,18,12,0.00
2016,11,07,18,13,0.00
2016,11,07,18,14,0.00
2016,11,07,18,15,0.00
2016,11,07,18,16,0.00
2016,11,07,18,17,0.00
2016,11,07,18,18,0.00
2016,11,07,18,19,0.00
2016,11,07,18,20,0.00
2016,11,07,18,21,0.00
2016,11,07,18,22,0.00
2016,11,07,18,23,0.00
2016,11,07,18,24,0.00
2016,11,07,18,25,0.00
2016,11,07,18,26,0.00
2016,11,07,18,27,0.00
2016,11,07,18,28,0.00
2016,11,07,18,29,0.00
2016,11,07,18,30,0.00
2016,11,07,18,31,0.00
2016,11,07,18,32,0.00
2016,11,07,18,33,0.00
2016,11,07,18,34,0.00
2016,11,07,18,35,0.00
2016,11,07,18,36,0.00
2016,11,07,18,37,0.00
2016,11,07,18,38,0.00
2016,11,07,18,39,0.00
2016,11,07,18,40,0.00
2016,11,07,18,41,0.00
2016,11,07,18,42,0.00
2016,11,07,18,43,0.00
2016,11,07,18,44,0.00
2016,11,07,18,45,0.00
2016,11,07,18,46,0.00
2016,11,07,18,47,0.00
2016,11,07,18,48,0.00
2016,11,07,18,49,0.00
2016,11,07,18,50,0.00
2016,11,07,18,51,0.00
2016,11,07,18,52,0.00
2016,11,07,18,53,0.00
2016,11,07,18,54,0.00
2016,11,07,18,55,0.00
2016,11,07,18,56,0.00
2016,11,07,18,57,0.00
2016,11,07,18,58,0.00
2016,11,07,18,59,0.00
2016,11,07,19,00,0.00
2016,11,07,19,01,0.00
2016,11,07,19,02,0.00
2016,11,07,19,03,0.00
2016,11,07,19,04,0.00
2016,11,07,19,05,0.00
2016,11,07,19,06,0.00
2016,11,07,19,07,0.00
2016,11,07,19,08,0.00
2016,11,07,19,09,0.00
2016,11,07,19,10,0.00
2016,11,07,19,11,0.00
2016,11,07,19,12,0.00
2016,11,07,19,13,0.00
2016,11,07,19,14,0.00
2016,11,07,19,15,0.00
2016,11,07,19,16,0.00
2016,11,07,19,17,0.00
2016,11,07,19,18,0.00
2016,11,07,19,19,0.00
2016,11,07,19,20,0.00
2016,11,07,19,21,0.00
2016,11,07,19,22,0.00
2016,11,07,19,23,0.00
2016,11,07,19,24,0.00
2016,11,07,19,25,0.00
2016,11,07,19,26,0.00
2016,11,07,19,27,0.00
2016,11,07,19,28,0.00
2016,11,07,19,29,0.00
2016,11,07,19,30,0.00
2016,11,07,19,31,0.00
2016,11,07,19,32,0.00
2016,11,07,19,33,0.00
2016,11,07,19,34,0.00
2016,11,07,19,35,0.00
2016,11,07,19,36,0.00
2016,11,07,19,37,0.00
2016,11,07,19,38,0.00
2016,11,07,19,39,0.00
2016,11,07,19,40,0.00
2016,11,07,19,41,0.00
2016,11,07,19,42,0.00
2016,11,07,19,43,0.00
2016,11,07,19,44,0.00
2016,11,07,19,45,0.00
2016,11,07,19,46,0.00
2016,11,07,19,47,0.00
2016,11,07,19,48,0.00
2016,11,07,19,49,0.00
2016,11,07,19,50,0.00